This demonstration page uses our WeatherBlox Daily Observations layout. Learn more.

36.17497, -115.13722

Hourly Observations for August 29, 2018

Temp ( °F °C ) Dew Point ( °F °C ) Humidity (%) Winds ( mph kmh ) Pressure ( in mb ) Visibility ( mi km ) Precip ( " mm )
12:53 am 00:53 Clear 81 27.2 33 0.6 18 18 N 5 7 29.86 1011 10 16.0934 0 0
1:53 am 01:53 Clear 78 25.6 35 1.7 21 21 NW 5 7 29.86 1011 10 16.0934 0 0
2:53 am 02:53 Clear 77 25 35 1.7 22 22 NW 7 11 29.86 1011 10 16.0934 0 0
3:53 am 03:53 Clear 73 22.8 35 1.7 25 25 N 5 7 29.87 1011 10 16.0934 0 0
4:53 am 04:53 Clear 73 22.8 32 0 22 22 NNW 5 7 29.88 1012 10 16.0934 0 0
5:53 am 05:53 Clear 73 22.8 30 -1.1 20 20 Calm 29.89 1012 10 16.0934 0 0
6:53 am 06:53 Sunny 73 22.8 28 -2.2 19 19 NNW 5 7 29.91 1013 10 16.0934 0 0
7:53 am 07:53 Sunny 79 26.1 34 1.1 20 20 NW 6 9 29.93 1013 10 16.0934 0 0
8:53 am 08:53 Sunny 84 28.9 34 1.1 17 17 ENE 5 7 29.93 1013 10 16.0934 0 0
9:53 am 09:53 Sunny 88 31.1 33 0.6 14 14 VRB 5 7 29.93 1014 10 16.0934 0 0
10:53 am 10:53 Sunny 91 32.8 33 0.6 13 13 SE 5 7 29.92 1013 10 16.0934 0 0
11:53 am 11:53 Sunny 92 33.3 34 1.1 13 13 SE 7 11 29.91 1013 10 16.0934 0 0
12:53 pm 12:53 Sunny 95 35 33 0.6 11 11 SSE 8 13 29.88 1012 10 16.0934 0 0
1:53 pm 13:53 Sunny 97 36.1 32 0 10 10 undefined N/A 29.86 1011 10 16.0934 0 0
2:53 pm 14:53 Sunny 98 36.7 31 -0.6 9 9 S 10 17 29.83 1010 10 16.0934 0 0
3:53 pm 15:53 Sunny 99 37.2 30 -1.1 9 9 SSE 12 19 29.82 1010 10 16.0934 0 0
4:53 pm 16:53 Sunny 99 37.2 34 1.1 10 10 SE 16 26 29.8 1009 10 16.0934 0 0
5:53 pm 17:53 Sunny 99 37.2 34 1.1 10 10 SSE 15 24 29.8 1009 10 16.0934 0 0
6:53 pm 18:53 Sunny 97 36.1 33 0.6 10 10 SSE 12 19 29.8 1009 10 16.0934 0 0
7:53 pm 19:53 Clear 95 35 29 -1.7 9 9 SSW 8 13 29.81 1009 10 16.0934 0 0
8:53 pm 20:53 Clear 92 33.3 31 -0.6 11 11 SSE 7 11 29.83 1010 10 16.0934 0 0
9:53 pm 21:53 Clear 91 32.8 32 0 12 12 SSE 6 9 29.83 1010 10 16.0934 0 0
10:53 pm 22:53 Clear 88 31.1 32 0 13 13 SSE 9 15 29.84 1011 10 16.0934 0 0
11:53 pm 23:53 Clear 86 30 32 0 14 14 SE 5 7 29.85 1011 10 16.0934 0 0

Powered by AerisWeather